Date and Time,30m Wind Direction,30m Wind Speed,30m Wind Vert,30m Quality,40m Wind Direction,40m Wind Speed,40m Wind Vert,40m Quality,50m Wind Direction,50m Wind Speed,50m Wind Vert,50m Quality,60m Wind Direction,60m Wind Speed,60m Wind Vert,60m Quality,80m Wind Direction,80m Wind Speed,80m Wind Vert,80m Quality,100m Wind Direction,100m Wind Speed,100m Wind Vert,100m Quality,120m Wind Direction,120m Wind Speed,120m Wind Vert,120m Quality,140m Wind Direction,140m Wind Speed,140m Wind Vert,140m Quality,160m Wind Direction,160m Wind Speed,160m Wind Vert,160m Quality,180m Wind Direction,180m Wind Speed,180m Wind Vert,180m Quality,200m Wind Direction,200m Wind Speed,200m Wind Vert,200m Quality,30m Wind Turbulence,40m Wind Turbulence,50m Wind Turbulence,60m Wind Turbulence,80m Wind Turbulence,100m Wind Turbulence,120m Wind Turbulence,140m Wind Turbulence,160m Wind Turbulence,180m Wind Turbulence,200m Wind Turbulence
12/10/2017 12:00 AM,323.70,7.90,-2.05,99,326.20,8.66,-2.01,98,321.60,8.18,-2.05,98,317.20,8.45,-2.05,96,328.00,8.68,-2.21,88,348.10,11.16,-2.60,34,334.70,14.80,-2.99,15,347.50,17.61,-3.58,7,3.20,14.34,-4.80,2,332.10,5.83,-4.81,8,336.80,10.41,-5.64,3,0.10,0.10,0.12,0.11,0.14,0.15,0.21,0.21,0.38,0.28,0.97
12/10/2017 12:10 AM,319.10,6.98,-1.77,99,316.60,7.69,-1.79,99,317.30,8.70,-1.91,98,320.90,8.59,-1.94,97,320.30,9.06,-1.97,87,339.70,10.36,-2.19,38,351.10,12.64,-2.71,4,342.10,11.98,-2.18,6,4.30,14.65,-2.25,4,358.20,14.95,-1.70,0,335.10,21.01,-3.35,2,0.12,0.10,0.10,0.12,0.10,0.18,0.17,0.20,0.14,0.27,0.30
12/10/2017 12:20 AM,322.80,6.45,-0.96,95,322.20,6.68,-1.04,97,320.00,8.57,-1.14,96,322.00,7.23,-0.98,92,323.00,9.75,-1.58,36,342.10,11.73,-2.30,2,128.40,19.70,3.01,0,115.00,13.13,1.49,1,2.70,7.30,-1.19,0,245.70,36.30,-0.87,0,87.60,26.81,1.32,1,0.16,0.17,0.14,0.19,0.10,0.13,0.08,0.21,0.52,0.13,0.09
12/10/2017 12:30 AM,330.00,7.09,-0.28,96,332.50,5.93,-0.08,96,320.80,6.32,-0.24,94,345.00,4.56,0.07,89,328.20,9.70,-0.87,27,19.70,14.36,-1.70,0,324.80,14.72,-1.50,1,352.10,21.25,-4.21,2,80.80,42.72,-0.61,0,5.80,13.21,-3.50,0,50.80,23.33,-1.47,0,0.13,0.15,0.15,0.18,0.19,0.14,0.16,0.15,0.03,0.26,0.34
12/10/2017 12:40 AM,331.10,6.55,-0.15,96,336.30,4.67,-0.06,96,330.10,4.41,-0.05,94,339.30,3.73,0.12,89,23.60,14.99,-2.01,6,15.00,18.60,-2.82,1,359.20,11.23,-1.61,0,41.40,13.58,-1.94,0,319.60,20.30,-5.42,1,19.30,13.36,-2.53,1,136.10,14.41,-4.25,0,0.13,0.18,0.18,0.24,0.40,0.23,0.20,0.24,0.13,0.32,0.14
12/10/2017 12:50 AM,338.50,4.71,-0.02,94,340.00,3.93,-0.01,95,341.70,3.99,0.09,92,345.20,3.24,0.07,85,323.90,7.18,-0.54,6,326.30,8.43,-0.33,0,39.30,4.93,0.11,0,340.60,19.70,-2.99,1,163.70,13.84,2.57,0,176.60,38.14,2.99,0,127.10,15.71,-2.60,0,0.15,0.18,0.18,0.24,0.14,0.08,0.11,0.17,0.79,0.08,0.09
12/10/2017 1:00 AM,340.30,4.19,0.02,95,332.00,5.55,-0.06,94,334.30,4.88,-0.02,93,349.10,3.47,0.20,89,327.40,7.84,-0.59,22,22.30,10.66,-0.87,1,14.10,18.46,-2.90,2,326.70,20.98,-2.28,1,353.00,19.22,-2.69,0,292.20,5.93,0.10,0,276.00,22.03,-1.94,1,0.17,0.14,0.17,0.21,0.26,0.19,0.23,0.65,0.17,0.43,1.91
12/10/2017 1:10 AM,346.00,4.63,0.12,93,349.50,2.97,0.11,94,354.80,2.59,0.10,91,358.20,2.72,0.14,83,75.50,16.24,-0.01,0,14.80,22.79,-2.93,3,293.20,2.49,-2.55,1,101.70,19.21,-3.66,3,266.30,2.31,-4.87,1,44.70,13.12,-5.18,2,4.60,9.70,-1.78,1,0.14,0.22,0.39,0.38,0.24,0.13,0.50,0.28,1.10,0.53,0.99
12/10/2017 1:20 AM,358.40,4.53,0.21,93,346.70,3.53,0.13,95,351.90,3.56,0.08,93,19.30,4.21,0.05,71,25.20,16.08,-2.40,1,36.20,23.99,-2.71,2,350.30,32.25,-5.75,0,351.70,14.44,-6.78,0,357.90,21.50,-3.85,0,69.50,17.43,-2.68,1,206.30,9.96,-5.51,1,0.11,0.20,0.22,0.25,0.14,0.07,0.07,0.12,0.16,0.20,0.34
12/10/2017 1:30 AM,354.40,3.18,0.11,92,350.50,3.42,-0.01,95,339.40,4.00,-0.03,91,348.50,1.97,0.06,84,358.30,9.07,-1.14,2,334.40,19.40,-3.36,1,320.40,16.12,-2.69,1,13.40,8.32,-3.47,1,209.40,9.51,-0.85,2,134.90,6.95,-5.89,4,71.10,6.23,-4.78,2,0.19,0.21,0.20,0.41,0.43,0.24,0.38,0.25,0.61,0.77,0.36
12/10/2017 1:40 AM,338.50,4.11,0.05,92,323.30,4.27,-0.13,95,327.40,4.82,-0.12,93,347.60,2.90,0.12,77,311.20,8.20,-0.49,5,36.20,15.68,-2.27,1,357.30,21.35,-4.23,0,42.50,27.54,-3.14,0,86.30,18.08,-2.61,0,249.90,45.44,-3.90,0,260.70,16.97,-5.90,1,0.16,0.21,0.19,0.35,0.16,0.13,0.07,0.09,0.33,0.03,0.28
12/10/2017 1:50 AM,338.10,4.55,-0.11,92,319.80,5.51,-0.15,95,330.00,4.62,-0.24,93,342.00,4.29,-0.16,89,13.30,13.11,-2.07,13,33.00,22.69,-2.88,3,12.60,27.22,-4.52,1,92.60,11.61,-1.76,2,83.70,22.42,-4.20,3,347.30,14.83,-4.43,2,359.40,24.53,-2.70,2,0.19,0.17,0.25,0.25,0.24,0.22,0.13,0.66,0.48,0.48,0.31
12/10/2017 2:00 AM,310.50,4.66,-0.88,94,313.00,5.90,-1.19,97,311.80,7.13,-1.42,97,308.20,7.93,-1.55,93,313.60,8.27,-1.84,66,332.90,8.56,-2.13,13,31.00,10.06,-2.34,4,48.90,22.12,-3.24,2,2.40,12.04,-5.72,7,74.50,18.12,-2.47,1,117.10,7.68,-3.93,6,0.27,0.22,0.20,0.18,0.18,0.32,0.27,0.26,0.47,0.18,0.55
12/10/2017 2:10 AM,319.60,3.21,-0.43,92,323.70,6.20,-1.03,98,315.40,6.53,-1.06,95,313.60,6.66,-1.15,92,338.80,8.38,-1.86,36,317.10,12.60,-2.14,8,327.20,1.85,-0.57,0,88.70,4.61,-0.13,1,57.70,19.97,-2.47,2,314.00,12.73,-5.54,0,272.80,13.30,-2.40,0,0.32,0.20,0.18,0.20,0.15,0.20,0.38,1.50,0.19,0.50,0.26
12/10/2017 2:20 AM,314.30,4.88,-1.02,93,316.30,6.46,-1.41,98,313.90,7.86,-1.55,96,311.50,7.60,-1.54,94,311.20,9.80,-1.78,57,314.00,12.13,-2.27,27,37.70,16.66,-2.61,7,286.70,27.39,-2.33,4,128.70,30.15,2.61,3,138.80,21.09,-2.53,1,26.00,7.97,-5.62,4,0.26,0.16,0.15,0.17,0.12,0.17,0.21,0.08,0.92,1.18,1.00
12/10/2017 2:30 AM,338.60,2.37,-0.15,92,319.90,5.38,-0.55,96,319.60,5.04,-0.45,94,322.80,5.27,-0.49,89,327.20,8.33,-1.15,12,328.40,19.09,-3.06,1,342.50,13.02,-2.18,2,0.80,13.92,-2.77,6,53.90,28.51,-2.17,0,157.10,36.84,1.77,0,204.00,1.44,-4.45,0,0.40,0.20,0.21,0.24,0.17,0.23,0.08,0.17,0.12,0.04,0.47
12/10/2017 2:40 AM,317.70,4.98,-0.63,95,316.40,5.77,-0.60,97,304.30,6.00,-0.88,96,316.90,4.28,-0.66,93,318.00,7.75,-1.36,55,269.60,15.93,-0.19,13,55.20,19.03,-2.03,8,324.50,11.29,-2.02,1,106.40,10.36,0.48,1,350.20,9.82,-2.89,2,27.30,17.49,-0.71,2,0.23,0.21,0.22,0.33,0.22,0.25,0.59,0.37,0.67,0.65,0.31
12/10/2017 2:50 AM,314.60,7.65,-1.05,98,312.40,7.48,-1.10,99,316.50,7.32,-1.26,97,316.30,7.30,-1.55,97,309.60,8.87,-1.70,89,308.10,10.29,-1.87,44,317.20,9.62,-1.94,5,268.40,21.12,-0.36,2,355.40,16.79,-3.54,0,149.90,13.40,0.93,2,23.20,16.86,-2.44,1,0.15,0.16,0.17,0.16,0.15,0.11,0.23,0.16,0.06,2.96,0.38
12/10/2017 3:00 AM,320.20,6.65,-0.79,96,314.00,6.77,-0.69,95,318.40,7.37,-1.06,95,314.20,7.49,-1.02,94,322.70,8.64,-1.54,88,324.80,8.29,-1.85,62,342.30,9.85,-2.20,8,344.90,16.51,-3.60,8,1.50,15.06,-2.87,6,39.70,9.15,-1.99,6,78.80,27.09,-0.75,2,0.18,0.17,0.17,0.20,0.17,0.23,0.15,0.21,0.37,0.30,0.12
12/10/2017 3:10 AM,316.40,5.35,-0.52,96,307.80,5.34,-0.57,96,310.60,6.22,-0.77,96,311.60,6.38,-0.80,93,310.60,6.72,-0.96,65,320.50,10.25,-1.62,3,111.20,8.28,0.80,0,263.00,7.93,0.36,0,165.90,27.04,0.20,1,86.50,20.33,-4.41,1,86.80,2.35,-2.09,0,0.19,0.22,0.18,0.21,0.21,0.12,0.36,0.28,2.51,0.13,0.54
12/10/2017 3:20 AM,320.50,5.22,-0.55,95,320.80,6.17,-0.90,98,318.00,6.53,-0.97,97,312.80,7.49,-1.00,96,320.30,8.20,-1.24,88,317.00,9.69,-1.35,22,335.10,6.85,-0.98,2,1.10,17.63,-3.78,0,6.70,6.68,-0.94,1,48.40,29.14,-3.35,0,283.40,42.48,-1.75,0,0.24,0.17,0.16,0.16,0.16,0.15,0.18,0.13,0.22,0.07,0.01
12/10/2017 3:30 AM,329.20,3.82,-0.27,91,322.10,6.09,-0.62,97,319.00,7.22,-0.87,96,314.60,7.12,-0.94,95,313.80,9.55,-1.32,85,309.90,10.63,-1.28,4,335.50,9.81,-1.97,1,55.20,6.91,-0.55,0,18.80,5.16,-1.45,0,100.80,16.73,-2.70,0,58.00,32.16,-2.79,0,0.27,0.19,0.17,0.20,0.17,0.13,0.16,0.05,0.84,0.09,0.04
12/10/2017 3:40 AM,328.80,5.56,-0.43,93,328.70,4.79,-0.57,96,316.50,6.51,-0.76,96,316.80,7.11,-0.88,94,322.90,10.05,-1.29,68,328.30,9.99,-1.57,8,329.70,11.10,-1.91,1,275.80,18.91,-0.11,0,46.20,8.52,-0.47,0,269.40,21.71,-1.28,0,286.10,35.61,-0.86,0,0.20,0.26,0.20,0.20,0.15,0.13,0.25,0.03,0.45,0.25,0.07
12/10/2017 3:50 AM,344.80,3.67,0.16,90,331.60,4.92,0.04,95,342.70,4.63,0.00,93,333.70,4.02,0.06,91,324.40,6.05,-0.36,23,130.80,4.80,1.55,0,53.80,19.49,-1.48,0,108.20,1.87,-0.31,0,109.00,14.54,2.18,0,240.10,18.96,1.74,0,269.60,11.12,-2.06,0,0.31,0.18,0.19,0.23,0.21,0.09,0.62,0.43,0.00,0.00,0.03
12/10/2017 4:00 AM,343.30,4.44,0.29,89,344.80,3.93,0.22,94,343.60,3.58,0.12,93,343.80,3.78,0.23,91,331.80,5.45,-0.09,8,33.90,20.24,-2.05,1,359.90,3.31,0.25,0,34.60,9.21,-0.21,0,48.30,23.20,-1.42,0,359.90,1.14,0.09,0,52.40,19.04,-0.57,0,0.28,0.20,0.22,0.20,0.29,0.14,0.08,0.01,0.06,0.64,0.18
12/10/2017 4:10 AM,339.20,2.80,0.13,88,340.90,3.06,0.10,95,333.80,3.09,-0.01,94,336.90,2.43,0.11,89,336.80,4.64,-0.22,14,16.90,12.17,-1.39,0,47.40,28.15,-2.83,0,42.40,13.43,-0.60,0,338.00,8.57,1.08,0,308.40,33.99,-3.30,0,180.00,0.00,0.00,0,0.41,0.24,0.23,0.28,0.16,0.04,0.07,0.02,0.11,0.03,0.00
12/10/2017 4:20 AM,341.60,3.39,0.15,87,342.90,4.08,0.16,95,336.20,4.05,0.04,94,343.30,2.84,0.22,90,283.30,3.66,0.54,14,79.90,21.70,0.45,0,307.10,19.53,-1.97,0,230.70,17.20,1.16,0,148.70,29.79,2.89,0,60.10,13.89,-1.28,0,88.10,38.00,0.38,0,0.31,0.17,0.19,0.22,1.16,0.03,0.19,0.03,0.02,0.00,0.13
12/10/2017 4:30 AM,351.40,3.12,0.19,87,330.80,3.94,0.10,95,338.90,4.16,0.04,93,336.00,3.63,0.19,92,321.10,4.82,0.11,22,337.70,10.86,-1.05,0,291.70,4.28,0.72,0,298.10,19.51,-0.79,1,179.90,4.27,-0.33,0,179.90,8.59,-0.65,0,263.70,29.57,0.19,0,0.17,0.17,0.19,0.25,0.45,0.09,0.09,0.06,0.05,0.00,0.00
12/10/2017 4:40 AM,340.10,2.97,0.19,90,332.90,3.40,0.05,96,335.00,4.51,-0.10,94,333.10,3.51,0.08,90,307.90,7.67,-0.49,27,294.10,10.41,-0.31,1,306.40,13.69,-1.41,0,205.70,13.92,3.82,1,349.20,17.46,-3.63,0,229.70,17.47,-3.32,0,356.90,21.82,-7.42,0,0.38,0.25,0.20,0.27,0.31,0.15,0.02,0.91,0.15,0.06,0.04
12/10/2017 4:50 AM,332.20,3.65,0.28,92,330.70,3.75,0.20,95,335.70,3.92,0.10,94,347.10,3.09,0.29,91,313.90,5.47,-0.03,7,322.40,10.32,-0.54,0,139.00,20.05,4.19,0,359.90,3.38,0.26,0,310.70,27.53,-2.48,0,359.90,25.52,1.94,0,240.10,9.37,0.86,0,0.18,0.19,0.18,0.19,0.21,0.03,0.01,0.02,0.01,0.00,0.06
12/10/2017 5:00 AM,340.00,2.13,0.11,93,330.40,2.42,0.04,95,323.70,3.57,0.06,93,324.90,2.16,0.14,91,308.20,4.84,-0.04,6,348.60,3.84,0.15,0,310.10,28.98,-4.01,0,90.80,23.09,-3.48,0,42.20,33.07,-2.91,0,58.50,34.24,-1.83,0,27.10,50.78,-1.06,0,0.28,0.27,0.20,0.30,0.58,0.04,0.01,0.32,0.06,0.06,0.00
12/10/2017 5:10 AM,350.10,2.32,0.21,89,325.00,2.73,0.01,95,325.50,2.76,0.05,94,328.20,3.26,0.09,89,326.70,5.84,-0.67,9,19.20,22.29,-3.33,0,330.90,20.30,-3.64,0,307.70,33.87,-3.36,0,77.10,39.07,-0.44,0,263.80,19.21,0.12,0,299.90,20.79,-2.53,0,0.20,0.28,0.27,0.25,0.32,0.12,0.11,0.01,0.04,0.02,0.08
12/10/2017 5:20 AM,345.60,2.87,0.22,88,332.80,3.75,0.03,95,326.40,3.14,0.13,94,341.80,3.76,0.17,90,317.50,5.76,-0.07,18,281.10,15.13,0.38,1,47.90,14.56,-0.88,0,283.90,36.49,-1.67,0,147.90,34.01,1.80,0,63.20,10.08,-0.82,0,31.70,40.58,0.06,0,0.36,0.22,0.28,0.22,0.34,0.09,0.15,0.05,0.07,0.07,0.04
12/10/2017 5:30 AM,339.90,2.63,0.20,90,340.80,3.06,0.07,94,326.00,3.22,0.07,94,329.90,3.55,0.02,91,344.60,7.62,-0.87,5,302.70,11.37,-0.44,0,271.80,4.00,0.61,0,75.10,34.20,-0.62,0,223.50,13.48,0.65,0,359.90,9.33,0.71,0,266.30,17.61,-3.33,0,0.31,0.24,0.23,0.24,0.26,0.03,0.13,0.09,0.06,0.13,0.11
12/10/2017 5:40 AM,346.80,2.05,0.10,90,322.20,2.32,-0.03,95,341.00,2.57,0.05,93,330.50,1.82,0.05,90,310.70,5.35,-0.34,9,18.90,12.15,-1.52,0,233.50,8.74,0.66,0,198.70,26.13,-3.44,0,359.90,5.62,0.43,0,150.20,18.11,0.46,0,11.30,48.49,-1.75,0,0.39,0.32,0.26,0.37,0.65,0.10,0.09,0.05,0.00,0.00,0.01
12/10/2017 5:50 AM,337.00,3.55,0.16,91,328.50,3.46,-0.01,95,323.10,4.50,-0.03,94,318.10,4.05,0.08,87,324.00,4.02,-0.12,17,312.90,9.77,-0.62,0,266.30,36.60,0.71,0,255.50,11.08,1.85,0,105.60,14.34,0.00,0,14.50,6.86,-3.40,0,268.90,25.81,0.98,0,0.22,0.25,0.21,0.23,0.30,0.17,0.05,0.06,0.32,0.66,0.05
12/10/2017 6:00 AM,319.90,1.35,0.00,91,289.20,1.38,-0.08,95,252.50,1.74,-0.07,94,281.90,1.31,-0.08,90,22.30,4.96,-1.17,13,19.50,9.18,-1.92,3,267.40,11.58,0.13,3,284.30,18.44,-2.76,2,27.30,19.38,-2.15,0,300.00,22.82,-2.48,2,346.00,11.93,-1.90,2,0.51,0.60,0.42,0.44,0.61,0.24,0.27,0.32,0.25,0.22,0.32
12/10/2017 6:10 AM,293.30,1.24,-0.06,93,285.30,2.51,-0.22,95,299.90,2.62,-0.20,93,274.80,2.20,-0.38,86,329.00,6.80,-1.41,12,356.80,15.49,-3.51,7,23.90,20.14,-4.02,6,353.00,17.40,-3.23,5,323.30,10.71,-1.92,2,26.40,5.28,-3.44,6,356.40,29.43,-3.94,4,0.56,0.33,0.38,0.44,0.26,0.21,0.35,0.18,0.40,0.75,0.19
12/10/2017 6:20 AM,297.80,2.23,0.06,94,296.60,4.18,-0.26,96,284.00,2.89,-0.15,94,296.60,4.16,-0.44,89,9.30,6.89,-1.35,14,44.10,28.21,-3.65,2,303.10,23.47,-3.08,2,24.60,8.02,-1.55,1,55.20,7.83,-4.11,1,41.20,19.59,-3.57,1,95.50,11.36,-2.79,2,0.40,0.22,0.33,0.35,0.39,0.06,0.15,0.52,0.67,0.40,0.69
12/10/2017 6:30 AM,268.70,4.78,-0.20,96,271.20,5.13,-0.40,96,272.50,4.97,-0.42,95,264.90,5.42,-0.37,89,287.30,8.28,-1.07,20,355.80,16.14,-3.94,6,353.00,13.41,-3.03,2,318.20,8.24,-3.95,7,10.20,14.65,-3.23,3,190.50,6.33,-3.29,9,83.30,0.96,-5.11,6,0.20,0.20,0.27,0.21,0.25,0.28,0.23,0.39,0.39,2.39,0.89
12/10/2017 6:40 AM,279.00,5.45,-0.19,95,279.30,5.84,-0.47,96,279.10,6.20,-0.57,95,285.10,5.68,-0.75,91,328.00,7.68,-1.96,28,30.80,7.56,-1.55,3,11.50,19.79,-4.34,4,13.30,17.88,-3.94,0,355.40,10.09,-0.85,2,336.70,18.52,-5.46,0,332.10,15.42,-0.39,1,0.20,0.18,0.21,0.22,0.18,0.28,0.18,0.08,0.46,0.13,0.50
12/10/2017 6:50 AM,289.30,5.33,-0.43,96,284.80,7.44,-0.63,98,283.70,7.76,-0.79,97,283.30,5.94,-0.74,95,289.00,7.81,-1.12,57,267.70,11.23,-0.53,10,333.40,9.94,-2.46,6,320.90,14.04,-2.93,5,315.80,10.38,-1.70,8,78.50,19.26,0.18,1,8.00,20.74,-4.16,1,0.20,0.14,0.14,0.18,0.15,0.37,0.42,0.24,0.33,0.11,0.20
12/10/2017 7:00 AM,278.70,4.77,-0.25,96,284.00,6.50,-0.56,98,280.00,7.14,-0.75,97,287.30,6.94,-0.76,96,288.30,8.06,-0.97,68,351.50,5.82,-1.70,22,274.30,21.92,-1.11,2,12.50,10.41,-2.38,3,9.70,16.14,-2.87,1,254.30,21.00,-2.66,1,47.40,26.88,-2.11,2,0.21,0.15,0.13,0.15,0.17,0.18,0.14,0.24,0.21,0.22,0.70
12/10/2017 7:10 AM,273.10,3.53,-0.21,94,273.80,4.17,-0.50,97,278.80,4.47,-0.71,95,277.00,4.19,-0.56,92,302.20,7.76,-1.41,34,258.30,6.35,-0.45,8,20.90,20.06,-4.40,3,10.80,18.22,-3.90,1,32.20,8.08,-2.23,1,13.70,15.21,-3.65,0,283.30,30.54,-3.47,0,0.26,0.21,0.21,0.32,0.18,0.78,0.30,0.25,0.97,0.29,0.09
12/10/2017 7:20 AM,295.20,3.67,0.17,95,308.60,3.10,-0.09,96,300.50,2.84,-0.01,95,309.40,2.94,0.04,89,298.90,9.26,-0.43,4,319.20,10.24,-0.93,1,13.00,12.90,-1.83,0,40.50,21.29,-2.57,1,245.80,5.36,-2.40,3,323.60,10.00,-4.75,1,348.40,43.31,-1.97,2,0.23,0.26,0.35,0.28,0.42,0.17,0.46,0.10,0.55,0.49,0.21
12/10/2017 7:30 AM,309.30,3.25,0.02,94,312.00,2.79,0.06,95,321.20,2.78,-0.04,93,310.30,2.00,0.05,87,289.30,8.22,-0.36,14,23.60,18.05,-2.55,1,308.10,10.27,-1.88,2,242.20,29.06,-2.15,1,339.70,33.59,-3.99,1,113.70,19.33,-4.35,1,225.50,10.88,-4.88,5,0.28,0.27,0.27,0.48,0.22,0.35,0.46,0.11,0.16,0.84,0.42
12/10/2017 7:40 AM,308.60,4.26,-0.03,94,301.20,3.04,0.05,96,304.90,3.48,-0.08,94,305.60,3.25,0.01,89,331.90,6.08,-0.85,15,89.90,8.49,0.79,4,19.80,18.17,-3.17,1,61.90,28.01,-1.49,2,299.90,24.06,-2.93,0,227.10,15.64,-2.93,0,337.80,26.72,-5.47,0,0.20,0.28,0.25,0.34,0.20,0.18,0.08,0.11,0.07,0.04,0.08
12/10/2017 7:50 AM,299.50,3.55,-0.06,94,323.30,2.25,-0.07,96,319.00,2.62,-0.12,94,326.40,1.98,-0.11,90,39.70,8.96,-1.27,2,337.50,19.15,-3.73,1,33.70,20.18,-3.19,2,17.50,16.43,-2.55,1,28.90,24.14,-3.67,4,344.50,7.76,-3.10,1,94.10,38.82,-0.07,2,0.22,0.28,0.25,0.49,0.25,0.19,0.34,0.17,0.17,0.49,0.23
12/10/2017 8:00 AM,296.60,3.30,0.09,96,303.60,3.05,-0.05,95,317.20,2.57,-0.03,94,304.90,3.03,-0.01,89,287.90,7.44,-0.31,10,24.30,6.92,-0.89,0,66.10,30.57,-1.76,1,24.30,14.76,-3.33,1,291.80,27.85,-3.06,0,216.70,7.49,0.21,0,354.60,29.86,-5.69,0,0.24,0.23,0.26,0.27,0.35,0.33,0.02,0.46,0.09,0.76,0.14
12/10/2017 8:10 AM,296.20,3.15,0.06,96,300.50,3.89,0.07,95,306.80,3.28,0.12,93,290.70,3.65,0.14,89,347.80,10.08,-1.64,28,325.70,15.25,-2.07,6,325.10,17.42,-3.13,3,345.80,9.97,-2.37,9,331.70,6.14,-5.19,12,335.10,24.10,-2.90,3,2.40,18.60,-3.60,13,0.28,0.22,0.25,0.33,0.30,0.18,0.18,0.56,0.65,0.20,0.68
12/10/2017 8:20 AM,280.70,4.92,0.10,97,285.80,3.26,0.04,96,281.20,2.80,-0.01,90,296.00,5.56,-0.62,75,295.50,8.35,-0.79,14,321.60,14.02,-2.89,12,304.10,7.64,-2.80,16,71.80,5.01,-2.50,16,285.90,8.66,-3.34,15,280.90,11.38,-3.23,9,150.70,3.11,-3.72,9,0.19,0.30,0.34,0.48,0.79,0.37,0.57,1.31,0.77,0.55,0.79
12/10/2017 8:30 AM,276.40,3.72,0.00,97,289.40,2.45,-0.03,95,294.40,1.77,-0.10,92,320.50,2.86,-0.28,67,309.50,10.71,-1.56,4,344.30,21.98,-4.77,3,16.20,24.58,-4.59,4,66.30,5.95,-3.61,7,55.10,10.96,-4.65,3,32.70,22.82,-3.48,2,2.90,25.74,-3.60,7,0.22,0.30,0.55,0.36,0.22,0.09,0.17,3.11,0.33,0.46,0.23
12/10/2017 8:40 AM,297.20,4.85,0.04,97,314.40,2.88,-0.05,94,305.80,1.88,0.02,90,330.20,2.98,-0.14,53,290.90,18.15,-1.49,6,294.80,25.78,-2.75,1,240.10,5.59,-1.26,5,250.80,19.24,-2.76,2,353.50,18.61,-4.87,7,349.70,2.75,-3.12,4,356.60,8.61,-3.22,1,0.18,0.27,0.32,0.40,0.25,0.11,0.39,0.63,0.20,0.32,0.43
12/10/2017 8:50 AM,278.70,3.62,-0.02,96,285.90,2.09,-0.01,93,291.70,2.06,-0.09,88,300.10,2.95,-0.57,42,321.80,22.35,-4.00,3,330.60,8.81,-5.17,8,28.20,18.07,-4.28,3,350.90,14.16,-3.69,8,36.10,6.21,-4.24,3,334.40,20.35,-2.62,5,313.80,14.19,-4.63,3,0.24,0.32,0.74,0.62,0.15,0.49,0.28,0.48,0.70,0.30,0.33
12/10/2017 9:00 AM,270.60,3.55,-0.05,96,287.00,1.65,-0.04,93,347.60,1.05,-0.10,85,312.10,9.03,-1.23,9,356.10,20.81,-4.48,6,273.20,22.80,-1.66,3,262.30,6.84,-2.50,11,264.70,14.83,-1.66,4,50.90,15.09,-3.22,3,353.20,6.14,-2.93,2,354.90,11.87,-5.51,10,0.25,0.39,0.69,0.41,0.21,0.15,0.87,1.24,0.85,0.41,0.32
12/10/2017 9:10 AM,279.00,3.17,0.02,97,276.00,3.69,0.00,96,285.40,2.35,0.03,92,293.10,2.70,0.00,41,32.60,17.04,-2.63,1,355.80,19.59,-4.54,0,339.10,20.04,-4.85,3,1.90,27.54,-4.66,5,240.50,10.67,-4.09,3,308.70,11.06,-1.29,8,148.40,13.52,-1.79,2,0.24,0.20,0.31,0.31,0.28,0.34,0.21,0.25,0.43,0.38,0.57
12/10/2017 9:20 AM,276.00,4.94,-0.04,97,282.10,3.66,0.01,96,279.50,3.21,0.03,93,296.40,2.01,-0.12,86,328.60,10.01,-1.89,4,12.30,25.49,-5.36,6,357.30,16.74,-3.28,4,5.80,15.78,-4.43,5,51.70,7.74,-4.08,6,323.90,12.99,-2.35,2,24.20,16.16,-3.54,1,0.17,0.22,0.43,0.42,0.68,0.22,1.39,0.19,0.29,0.62,0.15
12/10/2017 9:30 AM,283.00,1.95,-0.17,95,261.80,1.94,-0.12,93,237.00,0.52,-0.11,90,7.70,0.87,-0.21,20,348.40,16.56,-3.34,20,350.20,19.76,-4.04,11,47.40,6.90,-4.44,4,16.40,11.53,-5.39,5,337.30,9.73,-3.95,4,59.20,9.91,-3.12,6,245.00,19.81,-3.54,3,0.47,0.38,1.48,1.38,0.34,0.21,0.49,0.38,0.34,0.59,0.63
12/10/2017 9:40 AM,286.20,3.98,0.05,96,287.00,2.49,0.06,95,299.70,3.07,0.06,92,305.10,3.43,-0.21,69,18.60,14.47,-2.89,5,37.70,15.46,-3.01,3,332.70,8.30,-2.28,5,12.00,4.56,-4.53,9,357.30,22.43,-2.64,6,337.80,31.76,-1.47,5,318.30,9.64,-3.84,4,0.20,0.32,0.22,0.44,0.17,0.23,0.55,0.61,0.21,0.22,2.40
12/10/2017 9:50 AM,274.00,4.06,0.21,96,289.80,2.53,0.14,95,298.00,2.12,0.19,94,275.20,3.40,0.17,82,72.10,19.69,-0.97,7,315.40,17.12,-3.17,1,293.50,14.79,-2.17,2,323.60,5.70,-4.28,2,84.40,16.99,-2.64,4,245.50,10.34,-3.13,3,336.30,12.99,-5.69,2,0.20,0.29,0.32,0.23,0.33,0.41,0.29,65.54,0.42,0.43,0.23
12/10/2017 10:00 AM,282.70,3.80,0.02,96,284.90,2.43,0.02,93,313.60,1.69,-0.03,89,9.70,3.46,-0.67,52,296.40,20.73,-2.52,2,2.50,9.55,-4.75,4,317.60,8.16,-3.43,8,226.00,4.16,-5.90,13,299.50,7.69,-2.87,7,79.00,23.05,-1.30,3,112.90,16.17,-2.30,9,0.22,0.43,0.57,0.55,0.28,0.23,0.56,0.38,0.35,0.14,0.57
12/10/2017 10:10 AM,297.30,3.17,0.02,96,280.80,1.96,-0.01,94,310.60,2.23,-0.06,90,284.70,1.35,0.08,63,14.70,19.46,-3.74,14,46.20,12.90,-2.43,12,40.10,14.16,-3.24,7,164.30,7.53,-3.59,5,55.70,9.53,-4.43,5,74.10,3.55,-3.55,6,323.40,6.68,-4.48,4,0.26,0.54,0.49,0.86,0.19,0.41,0.38,1.21,0.31,1.28,2.00
12/10/2017 10:20 AM,280.90,4.05,-0.07,96,288.70,2.27,0.00,95,293.80,2.03,-0.07,90,289.10,1.51,-0.01,66,351.80,3.76,-0.78,8,31.00,15.61,-3.73,2,18.50,30.16,-4.17,2,287.50,17.75,-1.76,1,356.60,30.19,-4.39,3,2.00,33.02,-4.94,6,320.10,10.76,-5.78,5,0.20,0.31,0.76,0.74,0.46,0.24,0.17,0.23,0.18,0.13,0.75
12/10/2017 10:30 AM,278.20,4.07,0.05,97,275.40,3.33,0.04,96,282.40,3.17,0.01,94,304.50,2.50,-0.06,86,52.20,7.78,-0.75,9,8.10,15.93,-3.05,4,61.20,14.06,-1.74,13,273.00,14.93,-2.71,4,50.00,2.94,-2.71,10,321.30,11.46,-4.95,4,332.20,25.62,-2.95,2,0.20,0.23,0.26,0.67,0.39,0.30,0.21,0.24,0.51,0.35,0.16
12/10/2017 10:40 AM,280.80,4.20,-0.01,96,290.80,2.30,-0.03,94,312.90,1.70,-0.07,88,0.30,2.99,-0.44,45,25.10,13.78,-3.14,13,7.30,21.22,-4.19,18,340.00,8.64,-2.47,8,321.90,6.07,-5.76,8,357.20,9.64,-3.79,7,34.90,10.44,-5.27,6,6.00,4.91,-3.74,8,0.23,0.58,0.74,0.42,0.31,0.24,0.58,0.30,0.53,0.34,0.59
12/10/2017 10:50 AM,295.70,4.30,0.08,95,305.00,2.34,-0.03,92,301.40,1.93,0.19,86,306.00,8.33,-0.85,38,18.80,6.37,-1.46,1,352.50,11.57,-3.29,3,29.10,30.87,-2.48,2,327.80,26.17,-3.53,2,109.70,5.13,-3.04,6,95.00,13.58,-3.87,4,279.60,16.65,-3.75,3,0.25,0.39,0.45,0.48,0.25,0.37,0.18,0.26,0.37,0.96,0.28
12/10/2017 11:00 AM,293.60,3.95,0.07,95,319.10,2.03,-0.03,93,312.30,1.65,-0.07,85,344.60,8.93,-1.73,22,303.40,13.70,-1.62,6,298.10,6.74,-2.45,11,24.30,9.88,-4.49,12,2.40,16.94,-3.58,11,9.20,16.97,-4.48,17,46.30,12.83,-4.35,4,311.10,7.85,-3.61,6,0.30,0.45,0.40,0.35,0.35,0.44,1.57,0.40,0.41,0.49,0.30
12/10/2017 11:10 AM,319.00,2.52,-0.05,91,347.40,1.26,-0.16,82,39.10,3.66,-0.43,11,295.50,6.78,-0.39,10,323.10,14.51,-3.23,3,49.70,20.20,-3.68,3,9.70,18.38,-2.02,1,323.20,11.56,-2.68,4,45.70,11.74,-4.51,9,173.00,6.96,-5.85,0,293.10,2.25,-4.56,3,0.31,0.75,0.61,0.70,0.32,0.21,0.15,0.96,0.34,0.85,1.52
12/10/2017 11:20 AM,296.20,3.71,0.07,94,346.40,2.04,-0.12,89,299.90,4.95,-0.42,48,6.10,12.97,-2.65,7,12.90,19.88,-3.49,6,68.20,6.41,-2.38,7,328.40,14.31,-3.32,6,0.60,21.72,-1.84,4,118.50,3.87,-2.75,4,225.50,12.66,-2.49,4,313.50,20.45,-2.24,5,0.24,0.47,0.37,0.24,0.17,1.15,0.22,0.36,0.80,0.46,0.29
12/10/2017 11:30 AM,298.20,3.13,-0.01,92,321.30,1.60,-0.07,89,359.40,1.96,-0.27,39,51.20,12.95,-1.95,1,51.40,8.23,-2.77,5,127.20,14.55,-5.08,8,22.70,20.33,-3.93,6,52.70,2.80,-4.72,8,86.50,15.07,-3.28,8,42.60,3.93,-0.73,3,339.10,9.96,-5.28,3,0.30,0.72,0.54,0.34,0.37,1.34,0.18,0.96,0.39,1.88,0.32
12/10/2017 11:40 AM,297.80,3.19,0.07,96,293.20,1.99,0.01,92,313.90,2.86,-0.06,77,305.00,6.82,-0.57,21,349.00,14.86,-3.90,7,49.90,20.01,-2.95,4,319.30,19.15,-4.05,0,17.30,9.68,-4.64,2,322.20,7.29,-3.13,5,37.70,17.25,-1.13,7,24.40,21.58,-3.90,6,0.29,0.33,0.47,0.43,0.22,0.26,0.36,0.27,0.85,0.25,0.24
12/10/2017 11:50 AM,298.20,2.93,-0.02,94,303.30,1.22,-0.06,92,292.00,2.77,-0.10,52,29.30,8.47,-1.35,5,3.30,21.33,-4.35,2,300.70,14.26,-3.69,2,251.40,8.07,-4.54,4,305.90,30.41,-2.06,3,320.70,7.24,-4.44,2,350.30,7.23,-4.70,3,296.80,22.18,-4.95,1,0.26,0.46,0.39,0.40,0.19,0.32,0.51,0.27,0.64,1.22,0.23
12/10/2017 12:00 PM,289.10,2.35,-0.02,95,295.80,1.18,-0.06,93,342.30,0.79,-0.06,82,350.50,3.36,-0.59,32,268.60,11.77,-1.19,10,322.90,17.88,-4.23,6,246.90,14.96,-2.48,12,4.50,7.62,-6.14,8,236.80,10.56,-3.78,7,56.50,5.97,-2.25,6,307.40,2.69,-3.59,4,0.30,0.53,0.83,0.49,0.71,0.39,0.27,0.59,0.57,1.66,1.89
12/10/2017 12:10 PM,294.90,3.36,-0.10,94,290.90,0.70,0.03,92,248.10,0.62,-0.04,82,47.20,5.39,-0.66,22,335.30,15.74,-4.57,4,2.20,6.34,-5.79,19,303.30,20.43,-2.49,4,295.60,12.80,-2.16,5,264.90,19.81,-4.23,5,31.00,8.76,-4.54,15,355.50,19.09,-3.12,8,0.27,0.60,0.88,0.35,0.28,0.66,0.23,0.52,0.33,0.55,0.40
12/10/2017 12:20 PM,293.20,2.69,-0.07,96,320.50,1.18,-0.04,94,304.40,0.68,-0.11,88,27.40,9.95,-1.84,14,322.40,2.56,-0.55,11,344.00,10.36,-3.04,3,244.50,15.53,-2.81,10,41.70,12.15,-4.77,6,284.80,6.61,-2.65,10,116.00,5.38,-3.36,7,268.10,7.81,-3.76,10,0.39,0.69,1.95,0.48,1.19,0.41,1.04,0.64,0.66,1.18,0.41
12/10/2017 12:30 PM,273.40,3.94,0.01,95,312.30,2.17,-0.09,94,326.10,0.67,-0.04,87,45.20,3.83,-0.42,16,339.30,17.22,-3.58,12,146.40,17.21,-0.27,2,325.10,16.31,-5.15,6,321.30,11.69,-5.41,5,16.40,0.40,-4.14,4,315.30,7.51,-2.11,5,228.70,15.07,-2.56,5,0.25,0.39,3.70,0.65,0.28,0.54,0.35,0.55,0.65,0.69,0.38
12/10/2017 12:40 PM,286.10,2.75,-0.01,94,290.80,1.98,-0.04,92,293.90,0.89,0.00,89,290.80,2.03,-0.07,45,84.70,14.31,-0.12,10,109.70,13.15,-2.41,6,291.10,7.08,-3.73,7,277.20,10.38,-3.60,10,2.80,6.61,-3.79,4,7.10,11.65,-5.16,7,267.80,8.41,-4.00,9,0.27,0.44,1.22,1.47,0.37,0.35,1.12,0.72,0.49,0.33,0.46